Location: Zagreb
(45.8000°N, 16.0000°E)
Time: 15:09:38
(UTC+02:00)

Tiros 1 despin weight - Pass Details

Date: 09 August 2022
Orbit: 590 x 639 km, 48.2° (Epoch: 23 September)

Event Time Altitude Azimuth Distance (km) Brightness Sun altitude
Rises 15:57:34 0° 264° (W) 2,833 ? 42.6°
Reaches altitude 10° 15:59:53 10° 267° (W) 1,927 ? 42.3°
Maximum altitude 16:04:17 69° 351° (N) 636 ? 41.6°
Drops below altitude 10° 16:08:40 10° 75° (ENE) 1,918 ? 40.8°
Sets 16:10:57 0° 78° (ENE) 2,820 ? 40.5°
